Las Vegas, NM

6:04 PM MST on February 24, 2018 (GMT -0700)
Las Vegas Municipal

Weather History for KLVS - January, 2013

Change the Weather History Date:

Monday, January 28, 2013

  Actual Average Record
Temperature  
Mean Temperature 39 °F -  
Max Temperature 48 °F 48 °F 66 °F (1967)
Min Temperature 28 °F 21 °F -17 °F (1948)
Degree Days  
Heating Degree Days 26    
Moisture  
Dew Point 29 °F    
Average Humidity 69    
Maximum Humidity 89    
Minimum Humidity 39    
Precipitation  
Precipitation 0.00 in - - ()
Sea Level Pressure  
Sea Level Pressure 29.71 in    
Wind  
Wind Speed 18 mph (SW)    
Max Wind Speed 32 mph    
Max Gust Speed 46 mph    
Visibility 10 miles    
Events Snow    
Averages and records for this station are not official NWS values.
T = Trace of Precipitation, MM = Missing Value Source: NWS Daily Summary

Daily Weather History Graph

Daily Weather History Graph

Search for Another Location

Airport or City:

Trip Planner

Search our weather history database for the weather conditions in past years. The results will help you decide how hot, cold, wet, or windy it might be!

Date:

Astronomy

Jan. 28, 2013 Rise Set
Actual Time 7:03 AM MST 5:24 PM MST
Civil Twilight 6:36 AM MST 5:51 PM MST
Nautical Twilight 6:05 AM MST 6:22 PM MST
Astronomical Twilight 5:35 AM MST 6:52 PM MST
Moon 7:15 PM MST (1/28) 7:35 AM MST (1/28)
Length of Visible Light 11h 15m
Length of Day
10h 21m
Full, 97% of the Moon is Illuminated
Jan 28
Full
Feb 3
Last Quarter
Feb 10
New
Feb 17
First Quarter
Feb 25
Full

Hourly Weather History & Observations

Time (MST) Temp. Windchill Dew Point Humidity Pressure Visibility Wind Dir Wind Speed Gust Speed Precip Events Conditions
12:53 AM 36.0 °F 26.3 °F 30.9 °F 82% 29.76 in 10.0 mi SSW 16.1 mph - N/A   Clear
1:53 AM 33.1 °F 23.4 °F 30.0 °F 89% 29.77 in 10.0 mi South 13.8 mph - N/A   Clear
2:53 AM 30.9 °F 21.2 °F - N/A% 29.77 in 10.0 mi South 12.7 mph - N/A   Clear
3:53 AM 33.1 °F 24.4 °F - N/A% 29.75 in 10.0 mi SSE 11.5 mph - N/A   Clear
4:53 AM 32.0 °F 23.0 °F - N/A% 29.77 in 10.0 mi South 11.5 mph - N/A   Scattered Clouds
5:53 AM 32.0 °F 22.5 °F 28.0 °F 85% 29.76 in 10.0 mi SSW 12.7 mph - N/A   Clear
6:53 AM 32.0 °F 20.8 °F - N/A% 29.79 in 10.0 mi SSW 17.3 mph - N/A   Clear
7:53 AM 35.1 °F 23.8 °F - N/A% 29.79 in 10.0 mi SSW 20.7 mph - N/A   Scattered Clouds
8:53 AM 39.9 °F 30.2 °F 34.0 °F 79% 29.74 in 10.0 mi SSW 20.7 mph - N/A   Clear
9:53 AM 44.1 °F 34.8 °F 33.1 °F 65% 29.71 in 10.0 mi SSW 25.3 mph 32.2 mph N/A   Clear
10:53 AM 46.0 °F 37.2 °F 28.9 °F 51% 29.70 in 10.0 mi SW 26.5 mph 35.7 mph N/A   Mostly Cloudy
11:53 AM 48.9 °F - 28.0 °F 44% 29.68 in 10.0 mi SW 24.2 mph 33.4 mph N/A   Mostly Cloudy
12:53 PM 46.9 °F - 24.1 °F 41% 29.64 in 10.0 mi SW 28.8 mph 39.1 mph N/A   Overcast
1:53 PM 48.0 °F - 24.1 °F 39% 29.62 in 10.0 mi WSW 26.5 mph 41.4 mph N/A   Mostly Cloudy
2:53 PM 46.9 °F - 28.0 °F 48% 29.63 in 10.0 mi WSW 32.2 mph 46.0 mph N/A   Mostly Cloudy
3:53 PM 44.1 °F 34.0 °F 28.9 °F 55% 29.65 in 10.0 mi SW 29.9 mph 38.0 mph N/A   Overcast
4:53 PM 43.0 °F 34.5 °F 28.9 °F 58% 29.64 in 10.0 mi SW 19.6 mph - 0.00 in   Clear
5:53 PM 39.9 °F 31.1 °F 28.9 °F 65% 29.65 in 10.0 mi SSW 17.3 mph 25.3 mph N/A   Scattered Clouds
6:53 PM 39.9 °F 30.2 °F 30.0 °F 68% 29.68 in 10.0 mi SW 20.7 mph 28.8 mph N/A   Overcast
7:37 PM 35.6 °F 25.2 °F 30.2 °F 81% 29.75 in 10.0 mi WSW 18.4 mph 27.6 mph 0.00 in   Mostly Cloudy
7:45 PM 35.6 °F 26.2 °F 30.2 °F 81% 29.76 in 10.0 mi WSW 15.0 mph 27.6 mph 0.00 in   Overcast
7:53 PM 35.1 °F 24.5 °F 30.9 °F 85% 29.70 in 10.0 mi WSW 18.4 mph 24.2 mph 0.00 in   Overcast
8:46 PM 33.8 °F 25.3 °F 30.2 °F 87% 29.77 in 8.0 mi WSW 11.5 mph - 0.00 in Snow Light Snow
8:53 PM 33.1 °F 23.4 °F 30.0 °F 89% 29.68 in 9.0 mi WSW 13.8 mph - 0.00 in Snow Light Snow
9:53 PM 30.9 °F 19.8 °F 27.0 °F 85% 29.64 in 10.0 mi SSW 16.1 mph - N/A   Scattered Clouds
10:53 PM 32.0 °F 22.1 °F 21.9 °F 66% 29.64 in 10.0 mi SW 13.8 mph - N/A   Mostly Cloudy
11:53 PM 28.0 °F 17.5 °F 21.0 °F 75% 29.60 in 10.0 mi SSW 12.7 mph - N/A   Clear